| time (UTC) | temp F | wind direction | speed MPH | gust MPH | rain 1hr in | rain 24hr in | rain mn in | humidity % | barometer mb |
| 20260507114518 | 71 | 183 | 0.0 | 3.0 | 0.00 | 0.00 | 0.00 | 66 | 1008.7 |
| 20260507113040 | 72 | 105 | 0.0 | 2.0 | 0.00 | 0.00 | 0.00 | 67 | 1009.1 |
| 20260507111515 | 71 | 138 | 0.0 | 0.0 | 0.00 | 0.00 | 0.00 | 67 | 1009.1 |
| 20260507110014 | 72 | 190 | 0.0 | 0.0 | 0.00 | 0.00 | 0.00 | 66 | 1009.1 |
| 20260507104514 | 70 | 186 | 0.0 | 0.0 | 0.00 | 0.00 | 0.00 | 72 | 1009.3 |
| 20260507103008 | 69 | 196 | 0.0 | 0.0 | 0.00 | 0.00 | 0.00 | 74 | 1009.4 |
| 20260507101507 | 68 | 328 | 0.0 | 0.0 | 0.00 | 0.00 | 0.00 | 82 | 1009.8 |
| 20260507100013 | 67 | 336 | 0.0 | 0.0 | 0.00 | 0.00 | 0.00 | 83 | 1010.2 |
| 20260507094505 | 67 | 313 | 0.0 | 0.0 | 0.00 | 0.00 | 0.00 | 83 | 1010.6 |
| 20260507093005 | 67 | 312 | 0.0 | 9.0 | 0.00 | 0.00 | 0.00 | 82 | 1010.9 |
| 20260507091503 | 68 | 335 | 0.0 | 0.0 | 0.00 | 0.00 | 0.00 | 77 | 1011.2 |
| 20260507090006 | 70 | 335 | 0.0 | 0.0 | 0.00 | 0.00 | 0.00 | 73 | 1011.5 |
| 20260507084602 | 68 | 336 | 0.0 | 0.0 | 0.00 | 0.00 | 0.00 | 79 | 1011.7 |
| 20260507083057 | 66 | 336 | 0.0 | 0.0 | 0.00 | 0.00 | 0.00 | 83 | 1012.1 |
| 20260507081557 | 65 | 336 | 0.0 | 0.0 | 0.00 | 0.00 | 0.00 | 86 | 1012.4 |
| 20260507080056 | 66 | 336 | 0.0 | 0.0 | 0.00 | 0.00 | 0.00 | 83 | 1012.7 |
| 20260507074554 | 66 | 310 | 0.0 | 0.0 | 0.00 | 0.00 | 0.00 | 79 | 1012.7 |
| 20260507073056 | 66 | 310 | 0.0 | 0.0 | 0.00 | 0.00 | 0.00 | 83 | 1012.9 |
| 20260507071551 | 65 | 310 | 0.0 | 0.0 | 0.00 | 0.00 | 0.00 | 84 | 1012.9 |
| 20260507070103 | 66 | 310 | 0.0 | 0.0 | 0.00 | 0.00 | 0.00 | 83 | 1012.9 |
| 20260507064548 | 63 | 310 | 0.0 | 0.0 | 0.00 | 0.00 | 0.00 | 89 | 1012.8 |
| 20260507063051 | 62 | 310 | 0.0 | 0.0 | 0.00 | 0.00 | 0.00 | 89 | 1013.1 |
| 20260507061541 | 62 | 310 | 0.0 | 0.0 | 0.00 | 0.00 | 0.00 | 91 | 1013.1 |
| 20260507060046 | 60 | 310 | 0.0 | 0.0 | 0.00 | 0.00 | 0.00 | 92 | 1013.0 |
| 20260507054541 | 60 | 311 | 0.0 | 0.0 | 0.00 | 0.00 | 0.00 | 91 | 1012.9 |
| 20260507053035 | 61 | 246 | 0.0 | 0.0 | 0.00 | 0.00 | 0.00 | 91 | 1012.7 |
| 20260507051533 | 60 | 246 | 0.0 | 0.0 | 0.00 | 0.00 | 0.00 | 92 | 1012.5 |
| 20260507050052 | 59 | 246 | 0.0 | 0.0 | 0.00 | 0.00 | 0.00 | 92 | 1012.5 |
| 20260507044536 | 58 | 246 | 0.0 | 0.0 | 0.00 | 0.00 | 0.00 | 92 | 1012.4 |
| 20260507043029 | 58 | 246 | 0.0 | 0.0 | 0.00 | 0.00 | 0.00 | 92 | 1012.4 |
| 20260507041528 | 57 | 246 | 0.0 | 0.0 | 0.00 | 0.00 | 0.00 | 92 | 1012.4 |
| 20260507040028 | 57 | 246 | 0.0 | 0.0 | 0.00 | 0.00 | 0.00 | 92 | 1012.3 |
| 20260507034534 | 57 | 246 | 0.0 | 0.0 | 0.00 | 0.00 | 0.00 | 92 | 1012.0 |
| 20260507033031 | 58 | 246 | 0.0 | 0.0 | 0.00 | 0.00 | 0.00 | 92 | 1011.8 |
| 20260507031532 | 58 | 246 | 0.0 | 8.0 | 0.00 | 0.00 | 0.00 | 91 | 1011.6 |
| 20260507030033 | 58 | 101 | 0.0 | 7.0 | 0.00 | 0.00 | 0.00 | 91 | 1011.5 |
| 20260507024527 | 58 | 113 | 4.0 | 14.0 | 0.00 | 0.00 | 0.00 | 91 | 1011.2 |
| 20260507023023 | 58 | 82 | 6.0 | 12.0 | 0.00 | 0.00 | 0.00 | 91 | 1011.1 |
| 20260507021543 | 58 | 96 | 8.0 | 17.0 | 0.00 | 0.00 | 0.00 | 91 | 1010.9 |
| 20260507020025 | 58 | 116 | 6.0 | 17.0 | 0.00 | 0.00 | 0.00 | 92 | 1010.9 |
| 20260507014522 | 58 | 115 | 6.0 | 16.0 | 0.00 | 0.00 | 0.00 | 92 | 1010.8 |
| 20260507013017 | 58 | 117 | 6.0 | 12.0 | 0.00 | 0.00 | 0.00 | 92 | 1011.0 |
| 20260507011524 | 58 | 107 | 6.0 | 10.0 | 0.00 | 0.00 | 0.00 | 92 | 1011.1 |
| 20260507010028 | 58 | 108 | 0.0 | 4.0 | 0.00 | 0.00 | 0.00 | 92 | 1011.2 |
| 20260507004519 | 58 | 107 | 0.0 | 2.0 | 0.00 | 0.00 | 0.00 | 92 | 1011.0 |
| 20260507003014 | 58 | 107 | 4.0 | 11.0 | 0.00 | 0.00 | 0.00 | 92 | 1010.7 |
| 20260507001514 | 58 | 98 | 0.0 | 7.0 | 0.00 | 0.00 | 0.00 | 92 | 1010.2 |
| 20260507000014 | 58 | 113 | 1.0 | 7.0 | 0.00 | 0.00 | 0.00 | 92 | 1010.5 |
| 20260506234513 | 58 | 119 | 2.0 | 15.0 | 0.00 | 0.00 | 0.00 | 92 | 1010.2 |
| 20260506233011 | 58 | 90 | 3.0 | 13.0 | 0.00 | 0.00 | 0.00 | 92 | 1010.5 |
| 20260506231509 | 58 | 108 | 7.0 | 15.0 | 0.00 | 0.00 | 0.00 | 92 | 1010.7 |
| 20260506230006 | 58 | 103 | 6.0 | 13.0 | 0.00 | 0.00 | 0.00 | 92 | 1011.0 |
| 20260506224505 | 58 | 134 | 7.0 | 15.0 | 0.00 | 0.00 | 0.00 | 92 | 1011.3 |
| 20260506223002 | 58 | 111 | 6.0 | 13.0 | 0.00 | 0.00 | 0.00 | 92 | 1011.6 |
| 20260506221600 | 58 | 117 | 6.0 | 16.0 | 0.00 | 0.00 | 0.00 | 92 | 1011.6 |
| 20260506220101 | 58 | 109 | 7.0 | 15.0 | 0.00 | 0.00 | 0.00 | 92 | 1011.7 |
| 20260506214553 | 58 | 100 | 5.0 | 18.0 | 0.00 | 0.00 | 0.00 | 91 | 1011.7 |
| 20260506213050 | 59 | 120 | 6.0 | 16.0 | 0.00 | 0.00 | 0.00 | 90 | 1011.9 |
| 20260506211549 | 59 | 118 | 5.0 | 15.0 | 0.00 | 0.00 | 0.00 | 90 | 1012.1 |
| 20260506210044 | 59 | 89 | 3.0 | 15.0 | 0.00 | 0.00 | 0.00 | 89 | 1012.4 |
| 20260506204553 | 59 | 95 | 6.0 | 18.0 | 0.00 | 0.00 | 0.00 | 89 | 1012.5 |
| 20260506203041 | 59 | 104 | 6.0 | 18.0 | 0.00 | 0.00 | 0.00 | 88 | 1012.8 |
| 20260506201541 | 59 | 119 | 8.0 | 16.0 | 0.00 | 0.00 | 0.00 | 89 | 1012.7 |
| 20260506200044 | 59 | 103 | 8.0 | 21.0 | 0.00 | 0.00 | 0.00 | 90 | 1012.7 |
| 20260506194544 | 59 | 118 | 6.0 | 13.0 | 0.00 | 0.00 | 0.00 | 90 | 1012.7 |
| 20260506193033 | 60 | 119 | 4.0 | 12.0 | 0.00 | 0.00 | 0.00 | 90 | 1013.0 |
| 20260506191531 | 60 | 90 | 0.0 | 0.0 | 0.00 | 0.00 | 0.00 | 89 | 1013.1 |
| 20260506190030 | 60 | 90 | 0.0 | 4.0 | 0.00 | 0.00 | 0.00 | 88 | 1012.8 |
| 20260506184529 | 60 | 90 | 0.0 | 6.0 | 0.00 | 0.00 | 0.00 | 88 | 1012.9 |
| 20260506183027 | 60 | 92 | 0.0 | 6.0 | 0.00 | 0.00 | 0.00 | 88 | 1012.7 |
| 20260506181528 | 60 | 92 | 0.0 | 12.0 | 0.00 | 0.00 | 0.00 | 88 | 1012.5 |
| 20260506174503 | 61 | 101 | 4.0 | 14.0 | 0.00 | 0.00 | 0.00 | 88 | 1012.0 |
| 20260506171600 | 61 | 117 | 8.0 | 19.0 | 0.00 | 0.00 | 0.00 | 88 | 1011.8 |
| 20260506164524 | 61 | 93 | 6.0 | 14.0 | 0.00 | 0.00 | 0.00 | 88 | 1010.9 |
| 20260506163023 | 60 | 88 | 6.0 | 16.0 | 0.00 | 0.00 | 0.00 | 88 | 1010.6 |
| 20260506161524 | 61 | 94 | 7.0 | 15.0 | 0.00 | 0.00 | 0.00 | 88 | 1010.5 |
| 20260506160033 | 61 | 66 | 7.0 | 16.0 | 0.00 | 0.00 | 0.00 | 88 | 1010.4 |
| 20260506154521 | 61 | 85 | 7.0 | 16.0 | 0.00 | 0.00 | 0.00 | 87 | 1010.1 |
| 20260506153021 | 61 | 77 | 7.0 | 15.0 | 0.00 | 0.00 | 0.00 | 87 | 1010.2 |
| 20260506151531 | 61 | 118 | 6.0 | 14.0 | 0.00 | 0.00 | 0.00 | 89 | 1010.1 |
| 20260506150028 | 61 | 114 | 8.0 | 16.0 | 0.00 | 0.00 | 0.00 | 89 | 1010.0 |
| 20260506144518 | 61 | 116 | 7.0 | 16.0 | 0.00 | 0.00 | 0.00 | 88 | 1009.9 |
| 20260506143036 | 62 | 111 | 7.0 | 14.0 | 0.00 | 0.00 | 0.00 | 88 | 1010.1 |
| 20260506141518 | 62 | 113 | 9.0 | 14.0 | 0.00 | 0.00 | 0.00 | 90 | 1009.8 |
| 20260506140016 | 62 | 118 | 4.0 | 11.0 | 0.00 | 0.00 | 0.00 | 91 | 1009.7 |
| 20260506134516 | 62 | 119 | 0.0 | 3.0 | 0.00 | 0.00 | 0.00 | 91 | 1009.7 |
| 20260506133020 | 63 | 119 | 0.0 | 0.0 | 0.00 | 0.00 | 0.00 | 91 | 1009.7 |
| 20260506131517 | 62 | 119 | 0.0 | 1.0 | 0.00 | 0.00 | 0.00 | 90 | 1009.7 |
| 20260506130013 | 62 | 119 | 0.0 | 3.0 | 0.00 | 0.00 | 0.00 | 88 | 1009.8 |
| 20260506124512 | 62 | 119 | 0.0 | 0.0 | 0.00 | 0.00 | 0.00 | 87 | 1009.9 |
| 20260506123012 | 62 | 119 | 0.0 | 2.0 | 0.00 | 0.00 | 0.00 | 87 | 1010.1 |
| 20260506121512 | 61 | 119 | 0.0 | 3.0 | 0.00 | 0.00 | 0.00 | 87 | 1010.0 |
| 20260506120011 | 63 | 119 | 3.0 | 6.0 | 0.00 | 0.00 | 0.00 | 85 | 1010.0 |